Regional Weather Roundup
Issued by NWS Northern Indiana

Home | Current Version | Previous Version | Text Only | Print | Product List | Glossary Off
Versions: 1 2 3 4 5 6 7 8 9 10 11 12 13 14 15 16 17 18 19 20 21 22 23 24 25 26 27 28 29 30 31 32 33 34 35 36 37 38 39 40 41 42 43 44 45 46 47 48 49 50

000
ASUS43 KIWX 202210
RWRIWX

KIWX WEATHER ROUNDUP
NATIONAL WEATHER SERVICE NORTHERN INDIANA
600 PM EDT WED AUG 20 2014

NOTE: "FAIR" INDICATES FEW OR NO CLOUDS BELOW 12,000 FEET WITH NO
SIGNIFICANT WEATHER AND/OR OBSTRUCTIONS TO VISIBILITY.

* THESE STATIONS ARE NOT UNDER NWS QUALITY CONTROL. THEY ALSO MAY NOT
  REPORT WEATHER SUCH AS PRECIPITATION OR FOG.

INZ001>027-202300-
NORTHERN INDIANA

CITY           SKY/WX    TMP DP  RH WIND       PRES   REMARKS
GARY*          MOSUNNY   86  63  45 SW9       29.87S
VALPARAISO     SUNNY     84  64  50 SW10      29.89F
MICHIGAN CITY* SUNNY     82  63  51 SW8       29.88S
LAPORTE*       SUNNY     82  63  52 SW7       29.89S
KNOX*          SUNNY     84  64  50 W6        29.87F
SOUTH BEND     SUNNY     85  63  47 W6        29.89F
GOSHEN         SUNNY     86  65  49 W12       29.89F
MONTICELLO*    MOSUNNY   81  70  68 SW9       29.89S
LOGANSPORT*    SUNNY     82  64  54 SW9       29.90F
ROCHESTER*     SUNNY     86  64  48 SW7       29.89F
WARSAW*        MOSUNNY   82  64  54 W10       29.90F
ANGOLA*        PTSUNNY   84  79  84 VRB6      29.90F HX  96
FORT WAYNE     MOSUNNY   84  65  52 W7        29.91F
HUNTINGTON*    SUNNY     84  64  51 NW5       29.90F
PERU/GRISSOM   SUNNY     84  71  66 VRB2      29.89F
MARION*        SUNNY     83  65  55 SW5       29.91F

$$
INZ028>050-202300-
CENTRAL INDIANA

CITY           SKY/WX    TMP DP  RH WIND       PRES   REMARKS
LAFAYETTE      MOSUNNY   80  68  66 W10       29.90S
KOKOMO*        SUNNY     84  66  54 W8        29.90F
MUNCIE*        MOSUNNY   83  64  52 W13       29.92F
INDIANAPOLIS   CLOUDY    79  65  62 SW7       29.92F

$$
MIZ043>046-050>051-056>058-064>065-071>073-077>080-202300-
SOUTHWEST LOWER MICHIGAN

CITY           SKY/WX    TMP DP  RH WIND       PRES   REMARKS
BATTLE CREEK   SUNNY     81  63  54 NW8       29.91S
BENTON HARBOR  SUNNY     82  65  56 W10       29.88S
COLDWATER*     SUNNY     83  64  52 NW9       29.91S
HILLSDALE*     MOSUNNY   82  66  58 NW8       29.92S
HOLLAND        SUNNY     80  65  59 W3        29.90F
GRAND RAPIDS   MOSUNNY   80  66  62 W9        29.90S
KALAMAZOO      MOSUNNY   82  63  52 NW8       29.89F
STURGIS*       MOSUNNY   82  64  54 W10       29.89F
THREE RIVERS*  FAIR      82  66  56 W10       29.90F

$$
OHZ001>008-015>018-024>025-202300-
NORTHWEST OHIO

CITY           SKY/WX    TMP DP  RH WIND       PRES   REMARKS
WAUSEON*       FAIR      82  66  57 W8G14     29.89F
DEFIANCE       SUNNY     84  65  52 VRB7      29.90F
FINDLAY        SUNNY     84  66  54 W13G23    29.90S
TOLEDO EXPRESS SUNNY     83  65  54 W12       29.88S
TOLEDO METCALF MOSUNNY   84  64  50 W15       29.89S
LIMA           MOSUNNY   83  67  58 W12       29.92F

$$
&&


USA.gov is the U.S. government's official web portal to all federal, state and local government web resources and services.